Wind_Speed
25 24 24 23 22 21 20 21 21 22 22 22 23 23 23 23 21 21 21 20 18 17 15 15 15 15 15 16 17 18 18 19 20 21 21 21 21 22 24 25 26 27 27 29 30 33 35 36 36 35 35 36 38 40 43 43 44 45 45 45 46 44 43 44 44 43 42 40 40 38 36 36 37 36 35 34 35 36 37 37 37 37 37 36 36
25 24 24 23 21 21 21 21 21 21 21 22 22 23 22 21 20 19 19 19 18 17 16 16 16 16 15 16 17 17 17 17 18 19 20 20 20 21 22 22 23 23 24 26 28 31 34 37 37 37 37 36 36 39 42 42 43 45 45 46 47 46 45 45 44 43 43 42 40 38 37 37 37 36 36 36 36 37 38 38 37 38 38 36 36
25 24 23 22 21 20 20 20 20 20 20 21 22 23 22 21 20 19 19 19 18 17 17 16 17 17 17 17 17 17 17 17 18 19 19 20 19 19 20 22 23 24 24 24 25 28 32 35 37 36 37 38 37 38 41 41 42 45 45 45 47 46 47 47 44 43 43 42 40 38 37 37 37 36 37 37 37 38 40 40 38 38 38 37 36
25 24 23 21 20 20 19 18 18 19 20 22 22 23 23 22 21 20 20 19 18 18 18 17 18 18 18 18 18 18 18 18 18 19 20 20 20 19 20 23 24 25 26 26 28 30 33 34 35 35 36 38 38 38 40 40 41 43 44 44 45 44 45 46 43 42 43 43 41 38 37 37 36 36 37 37 36 37 39 41 41 40 39 37 36
25 24 22 20 19 19 18 17 18 19 21 22 23 23 22 22 22 21 20 19 18 19 19 19 19 19 20 20 20 19 19 19 20 20 20 21 21 20 21 22 24 25 26 29 31 35 37 36 35 34 36 37 36 36 38 38 39 42 43 42 41 41 43 44 42 42 43 43 41 39 37 36 35 36 36 36 37 37 39 41 41 40 40 38 36
24 23 21 19 19 18 17 17 18 20 21 22 22 22 22 22 21 21 21 20 19 19 19 19 19 20 21 22 21 19 19 20 21 21 21 22 22 23 23 23 25 27 28 30 34 38 41 39 34 33 34 37 35 33 36 37 37 40 41 40 39 41 43 43 42 42 42 42 42 41 39 36 35 36 36 36 37 38 39 41 41 41 41 39 37
23 22 19 18 18 17 17 18 19 21 21 22 22 21 21 21 21 21 22 21 20 19 19 18 19 20 22 23 21 20 20 21 22 23 23 23 24 24 24 25 27 29 30 32 35 41 42 38 35 33 32 35 35 33 33 36 35 36 38 38 38 41 42 42 42 42 41 41 42 41 41 38 36 36 37 37 38 39 40 41 41 41 41 40 38
22 20 18 18 17 17 18 19 20 21 22 22 21 20 20 21 21 22 22 22 21 20 19 19 19 20 22 23 22 20 20 22 23 24 24 24 25 25 25 26 28 30 31 33 37 42 41 34 31 32 32 32 33 33 31 33 33 33 35 36 37 40 41 41 41 41 41 42 40 40 41 39 37 36 36 38 40 40 40 41 41 41 41 42 40
21 18 17 17 17 17 18 20 21 21 22 21 19 19 20 21 21 22 22 22 21 21 20 19 19 19 20 22 22 21 21 22 23 25 26 25 26 26 25 26 29 30 32 34 38 42 38 28 23 26 29 29 29 31 30 30 32 31 30 32 36 38 39 40 40 41 42 41 39 39 41 40 37 36 36 39 40 38 37 40 42 42 43 43 40
19 17 17 18 17 18 19 20 21 21 21 19 18 19 21 22 22 22 22 22 21 21 21 20 19 19 20 21 22 21 22 23 24 26 26 26 26 26 25 26 28 30 32 35 39 40 33 25 22 23 21 23 25 27 29 29 30 30 28 29 33 37 38 39 40 41 42 40 39 39 41 40 38 37 37 37 38 37 37 40 42 42 43 44 42
18 17 18 18 18 19 19 20 21 21 20 18 18 20 22 23 22 21 21 20 19 20 20 20 19 19 20 21 22 22 22 24 26 27 26 26 26 25 24 25 27 30 31 35 39 38 31 24 21 22 18 16 21 25 28 30 31 32 31 30 32 35 36 37 39 41 41 40 39 40 41 41 39 38 37 37 37 38 38 38 39 40 42 46 45
17 17 18 18 18 19 19 20 21 21 20 18 19 21 22 22 22 20 19 18 18 18 18 18 18 18 20 21 21 22 22 23 25 26 25 25 25 23 23 24 26 28 30 35 38 36 34 28 22 19 20 13 14 19 24 28 32 34 34 33 32 34 35 36 37 39 39 38 38 40 41 41 40 39 38 36 38 39 39 38 38 38 41 45 45
17 17 18 18 19 19 20 21 21 21 20 19 20 22 22 21 20 19 19 18 17 17 16 16 17 17 18 19 19 20 21 22 24 25 24 24 23 21 22 23 24 26 29 34 37 35 37 35 26 19 19 18 13 11 18 25 30 32 34 34 34 34 35 36 37 37 37 38 39 40 40 40 40 40 38 36 37 40 39 38 38 38 40 43 43
17 18 19 20 20 20 21 22 22 21 20 20 20 21 21 20 19 18 18 18 18 17 15 15 16 16 17 18 18 18 19 21 23 23 24 23 20 19 20 21 23 25 27 32 36 34 37 40 34 23 19 19 18 13 13 21 29 33 34 34 34 35 35 36 37 37 38 39 39 40 39 38 39 39 38 36 38 40 41 39 37 38 39 40 41
18 18 20 21 21 21 22 22 22 22 21 20 20 20 21 19 18 18 18 18 18 16 15 15 15 15 16 17 17 16 17 19 21 22 22 21 19 18 18 19 21 23 26 30 33 33 35 39 40 29 20 18 19 17 14 15 23 30 34 34 34 35 36 36 36 36 37 38 39 40 39 38 38 38 37 38 39 40 41 39 37 37 37 39 43
20 20 21 21 22 22 23 23 23 22 22 21 20 20 20 19 18 18 18 18 17 15 14 14 14 15 16 17 16 15 16 18 19 20 21 20 19 18 18 19 20 21 24 27 30 31 32 36 40 35 25 19 21 21 18 15 16 22 29 34 35 35 36 37 36 36 37 38 40 41 40 40 41 40 38 39 40 41 41 39 37 38 39 43 47
21 22 23 23 23 24 24 25 24 23 22 22 20 20 20 19 19 19 18 17 17 15 14 14 15 15 16 16 16 15 16 17 18 19 20 20 19 18 18 18 20 20 21 24 26 29 30 32 38 39 33 25 21 21 19 18 17 16 21 28 34 36 35 35 36 36 36 38 40 42 42 42 43 43 41 40 39 40 42 41 38 39 40 42 45
24 25 24 25 25 26 26 27 26 24 23 23 21 20 20 20 20 19 18 17 16 15 14 14 14 15 15 15 15 15 16 17 18 19 20 19 18 17 17 17 19 19 20 21 23 26 28 28 33 38 38 32 24 18 18 19 18 16 14 17 26 34 36 36 36 36 35 36 39 42 43 44 44 45 45 44 42 41 41 41 41 42 42 40 40
26 27 26 26 26 27 28 28 27 26 25 24 23 21 21 22 21 20 19 18 16 14 13 13 13 13 14 14 15 15 16 17 18 19 19 19 18 17 16 16 17 18 19 19 20 22 25 26 28 33 38 37 31 24 17 17 18 17 13 10 14 25 34 37 37 36 36 37 39 42 43 44 46 48 48 48 47 45 42 42 43 43 41 39 39
28 28 28 27 27 28 29 28 28 27 26 24 24 23 23 23 22 20 19 18 16 15 14 13 13 13 14 15 15 16 17 17 17 18 19 18 17 17 17 16 16 17 18 19 18 19 21 23 25 29 34 37 36 31 23 16 15 16 17 16 11 15 27 35 36 35 37 38 39 41 43 44 45 48 49 49 48 47 45 43 43 42 41 39 39
30 30 29 28 28 28 29 29 29 28 26 25 25 25 25 23 22 21 20 18 17 16 16 16 15 14 15 16 16 17 17 17 17 18 18 17 17 17 17 17 17 17 18 18 18 18 19 20 21 25 30 33 34 33 29 22 15 15 18 20 18 14 19 28 32 34 37 39 39 40 41 43 44 44 47 48 47 46 45 45 45 44 43 42 40
32 31 30 28 28 28 28 28 29 28 27 26 26 26 25 24 22 22 21 20 19 18 18 18 17 16 16 17 18 18 18 17 17 18 18 18 17 16 17 17 17 18 18 18 17 17 17 18 19 21 26 30 31 30 31 28 22 17 16 18 21 20 15 22 28 31 34 36 38 38 39 40 40 41 42 44 44 44 44 45 46 46 44 42 40
32 31 30 28 28 28 27 28 29 28 28 27 27 27 26 24 23 22 22 21 20 19 19 19 17 17 17 18 18 19 18 17 17 17 18 18 17 16 17 17 18 18 18 18 17 16 16 17 18 19 22 27 29 29 29 30 29 24 17 15 20 23 14 18 25 26 29 31 32 33 35 37 38 38 40 42 43 44 44 44 44 45 45 43 40
32 31 30 29 28 27 28 29 29 29 29 28 27 27 26 24 24 23 23 22 21 21 21 20 18 18 18 17 17 17 18 18 17 17 18 19 17 17 17 18 18 19 19 18 17 17 16 15 17 18 19 22 26 28 28 29 30 29 22 14 16 22 15 10 20 22 25 29 30 30 31 34 37 37 38 40 41 41 43 43 43 44 43 41 40
33 32 31 30 29 28 29 29 30 31 31 29 27 27 26 25 24 24 24 23 22 21 21 20 19 18 17 17 17 17 18 19 18 18 19 19 18 16 16 18 19 19 19 18 17 17 16 15 15 16 17 18 22 26 27 27 28 31 30 21 14 17 17 5 10 19 20 21 25 28 28 28 32 34 34 36 39 40 42 43 43 42 41 40 40
34 33 31 30 29 29 29 29 29 31 31 28 26 27 27 25 25 25 24 23 22 21 22 21 19 18 17 16 17 17 18 18 19 19 20 20 19 16 15 16 18 19 18 18 17 16 16 15 15 15 16 16 19 23 25 27 27 27 31 32 24 18 17 16 7 7 14 13 13 22 28 25 25 28 30 33 36 38 39 41 40 39 39 39 40
33 32 30 30 30 29 28 27 29 31 31 27 25 27 27 26 27 27 25 23 22 21 22 21 20 18 18 17 17 17 18 18 18 18 19 19 19 17 15 14 16 17 17 16 16 16 15 15 15 16 16 15 17 20 23 25 26 25 27 33 34 27 20 18 19 11 5 8 7 12 25 25 22 25 28 30 34 36 35 37 38 38 37 37 38
30 30 30 31 30 29 28 27 29 32 31 26 25 28 27 27 27 27 25 23 22 22 22 22 20 19 18 18 17 17 18 18 17 17 17 18 18 17 15 14 14 16 16 15 15 15 15 15 15 16 16 14 15 17 20 22 24 25 26 28 32 33 27 20 19 19 10 4 4 4 13 19 21 26 29 28 30 34 36 37 37 35 35 37 37
28 30 32 31 29 29 29 28 30 31 30 28 29 29 27 27 28 27 26 25 23 22 22 22 21 20 19 18 17 17 18 17 17 16 16 16 17 17 15 14 13 14 15 14 14 14 13 14 14 14 14 14 13 14 17 19 21 22 24 25 27 31 33 29 25 24 19 11 10 11 10 8 10 17 26 31 31 31 33 35 36 35 34 34 35
29 31 32 31 29 29 29 29 31 31 29 30 33 31 26 27 28 27 27 27 25 23 22 22 21 21 21 19 18 18 19 18 17 17 16 16 17 17 16 15 14 13 14 14 14 13 12 12 13 13 13 13 13 13 14 16 18 19 21 23 24 26 30 32 31 30 27 19 11 9 10 11 12 13 15 24 33 34 33 33 33 33 33 33 33
32 32 33 32 31 31 31 31 32 33 31 31 34 33 28 27 28 28 27 28 27 25 24 22 21 21 21 20 19 19 20 19 19 18 17 17 16 16 16 16 14 14 13 13 13 13 12 12 13 13 14 13 13 13 13 14 16 18 19 20 22 23 25 28 30 30 30 26 19 12 7 6 8 11 15 17 20 27 33 36 36 34 33 32 32
34 34 34 35 35 35 34 33 33 34 32 32 34 34 31 29 29 29 29 29 28 27 25 24 22 22 21 21 20 20 20 20 19 18 17 16 15 14 14 15 14 14 13 13 13 12 12 13 12 12 12 13 13 13 13 13 13 15 17 18 19 21 22 24 25 26 27 28 27 23 16 10 6 7 10 14 16 16 19 25 29 30 31 31 32
36 36 36 37 37 36 35 35 35 35 34 33 34 35 34 32 30 30 31 30 27 26 25 24 23 22 21 20 20 20 20 19 18 17 15 14 13 13 13 13 14 14 13 13 13 12 12 13 12 11 11 11 12 12 12 12 12 12 14 15 16 17 19 20 21 23 24 25 27 28 25 21 16 11 7 6 8 11 14 16 18 20 21 23 26
36 36 35 35 35 35 35 35 35 35 35 36 35 35 35 34 32 31 30 28 25 24 23 23 22 21 21 20 19 19 19 18 16 14 13 13 13 13 14 14 14 14 13 13 13 13 12 12 12 12 10 10 10 11 12 12 11 11 11 12 13 14 15 16 16 19 22 23 24 26 25 23 22 19 14 9 6 5 7 9 11 14 17 18 19
34 34 33 33 33 34 34 34 34 35 35 36 36 36 37 37 35 32 27 23 21 21 21 22 21 20 20 20 19 19 18 16 15 13 13 14 15 15 15 15 15 15 15 14 14 14 13 13 12 12 11 10 9 9 10 11 11 10 9 10 10 11 12 13 13 14 17 19 21 22 21 20 21 22 19 15 12 8 5 5 4 6 9 11 11
32 33 32 32 32 32 33 33 33 34 34 34 35 36 35 34 31 27 22 19 19 19 18 19 20 19 19 19 19 18 17 16 15 15 15 16 17 17 16 17 17 17 17 16 15 14 14 14 13 12 11 10 9 9 9 9 10 10 9 9 9 9 10 11 11 11 12 14 15 17 18 19 19 20 18 16 16 14 10 8 6 3 3 5 7
31 31 32 32 31 31 31 31 31 31 30 28 27 26 25 24 24 23 21 21 21 20 19 20 20 19 19 19 18 17 17 16 16 17 17 18 18 18 17 17 18 18 17 17 16 15 14 14 14 13 12 12 11 9 8 8 9 9 9 9 9 9 9 9 9 9 11 11 10 10 12 14 15 16 14 13 14 14 13 12 11 9 7 4 1
29 30 30 29 29 29 29 29 28 26 24 21 18 17 18 18 18 19 19 20 19 19 19 19 19 19 18 19 19 18 17 17 18 19 19 19 19 19 19 19 18 18 18 17 17 16 15 15 14 14 13 13 13 12 11 10 10 10 10 10 10 9 8 9 8 7 8 9 8 8 7 8 10 11 11 10 11 11 10 10 11 11 10 10 10
27 28 28 27 27 28 28 27 25 22 21 18 16 15 15 14 14 15 17 17 16 16 15 15 16 17 17 18 19 20 19 19 19 20 20 21 20 21 21 21 19 19 18 18 18 18 17 16 16 15 14 14 14 14 14 13 12 12 11 11 11 10 9 9 8 7 7 6 7 7 6 6 7 8 7 6 7 9 8 7 8 8 7 7 9
27 27 27 27 27 27 26 24 22 20 19 18 17 15 14 14 15 16 16 14 14 14 14 14 15 17 18 19 20 20 20 20 20 20 21 22 22 22 22 21 21 20 19 19 18 18 18 18 18 17 16 16 15 15 15 14 14 14 13 13 12 12 11 11 10 8 7 7 6 6 5 5 6 5 5 5 5 6 7 7 7 7 6 5 6
27 28 27 26 25 25 24 23 21 19 18 16 14 13 14 15 15 14 12 12 13 14 14 15 16 17 18 19 20 20 21 21 22 22 22 22 23 23 22 21 20 20 19 18 17 17 18 18 19 19 19 18 17 17 17 16 16 15 15 15 14 14 14 13 12 11 10 9 8 7 7 6 7 6 5 5 4 3 3 3 5 6 6 5 4
26 25 25 24 23 23 22 22 20 19 17 15 14 14 15 15 13 12 12 13 14 15 15 16 17 18 19 19 20 21 22 23 22 22 22 21 21 20 19 19 18 18 17 16 15 15 16 17 17 18 19 20 19 19 18 18 18 18 17 17 16 16 16 15 15 14 13 12 10 9 9 8 8 9 8 7 7 5 4 5 6 6 7 7 5
21 21 21 21 21 21 20 20 18 18 18 17 16 16 16 15 14 14 15 15 16 16 17 18 18 19 20 20 21 21 22 22 21 20 19 18 17 16 16 16 16 15 15 14 14 14 15 15 15 16 17 18 19 20 19 19 19 19 19 19 18 18 17 17 17 16 16 15 14 13 11 11 10 10 10 10 10 9 9 9 9 8 8 9 8
17 18 19 19 18 17 17 17 16 16 16 16 16 16 17 16 16 17 17 16 17 18 19 20 21 21 21 21 21 20 20 19 18 17 16 16 15 14 14 14 14 14 13 13 13 13 13 14 14 15 15 16 17 18 18 18 18 18 19 19 19 19 19 19 19 18 18 17 16 15 14 13 13 12 12 12 12 12 12 12 12 11 11 11 11
16 17 17 17 17 17 17 17 17 17 16 16 16 16 17 17 18 18 18 18 19 20 21 22 22 21 21 20 19 18 17 15 15 15 15 15 14 13 12 11 11 11 10 10 10 11 11 11 12 13 13 14 14 15 16 17 17 17 18 18 18 19 19 19 20 20 19 19 18 17 16 16 16 16 15 15 14 14 13 13 13 13 13 13 13
17 18 18 18 18 18 18 18 18 17 16 17 17 18 18 19 19 19 19 20 21 21 21 22 22 21 20 18 16 15 14 13 13 13 13 12 11 10 9 8 7 7 6 6 7 7 7 6 6 6 7 8 9 10 12 14 16 16 16 16 16 17 18 18 19 18 18 19 19 19 19 19 19 19 18 18 17 17 17 17 16 16 15 15 14
17 18 18 18 18 18 19 19 18 18 18 19 19 20 20 20 20 20 21 21 21 21 21 21 20 19 17 15 14 13 12 12 11 10 10 8 7 6 6 5 5 5 5 5 5 5 5 5 5 4 4 4 4 5 6 8 10 12 14 15 16 16 16 17 17 17 18 18 19 20 20 20 20 20 20 21 21 21 21 20 19 18 18 17 17
17 17 18 19 19 20 21 21 21 21 21 21 21 21 21 21 21 22 22 21 21 21 21 19 17 15 14 13 12 11 10 8 7 6 5 5 4 3 3 3 4 4 5 5 5 6 6 6 6 6 6 6 5 5 4 4 4 6 7 10 11 13 14 14 15 15 16 17 18 19 21 21 22 21 21 22 22 22 22 22 21 20 19 18 18
19 20 21 22 22 23 23 23 23 23 23 23 22 22 22 22 22 22 21 21 20 19 18 15 13 12 12 11 10 8 7 5 4 3 3 3 3 3 3 3 4 4 4 5 6 6 7 7 7 7 7 7 7 7 6 6 5 5 5 5 6 8 9 10 11 12 13 13 14 16 18 20 21 22 22 23 23 23 23 23 23 22 21 19 18
20 21 22 23 23 23 24 24 24 24 23 23 23 23 23 22 21 21 20 20 18 16 14 12 11 11 10 9 8 6 5 5 4 4 4 4 5 5 5 5 6 6 6 6 7 7 8 8 9 9 9 10 9 9 9 9 8 8 7 7 6 6 7 8 9 9 10 10 10 11 12 14 16 18 20 21 23 24 24 25 25 24 24 22 20
21 22 22 23 23 24 24 24 24 23 23 22 22 22 21 20 20 20 19 17 15 13 11 11 10 9 8 7 6 5 5 5 5 5 5 5 5 6 6 6 6 7 7 8 8 8 9 9 10 10 10 10 11 11 11 11 11 10 10 10 9 9 8 8 8 9 9 10 10 10 10 10 11 11 12 14 15 17 19 21 22 23 24 24 23
Wind_Direction
325 322 320 319 318 319 319 320 319 319 319 320 321 321 321 321 321 321 320 318 315 314 313 313 315 316 315 313 313 312 308 302 299 299 302 303 306 311 312 308 304 299 294 289 284 282 280 276 273 273 272 269 264 260 258 258 257 255 253 254 254 254 254 253 254 257 257 254 253 253 251 251 251 251 249 247 248 248 249 251 250 248 247 250 250
325 321 318 316 315 317 319 320 319 319 320 322 322 322 321 321 320 319 318 316 313 311 311 311 312 314 315 315 315 316 313 307 302 300 301 303 310 319 321 320 318 314 309 303 296 290 285 281 276 272 271 271 268 264 259 257 257 256 253 252 253 254 254 254 254 255 255 254 252 251 250 251 251 250 248 247 247 248 248 249 250 248 247 249 250
323 319 315 313 313 316 318 319 319 319 321 322 322 321 320 318 317 316 315 313 311 309 307 307 308 311 313 313 313 313 311 309 306 304 303 307 313 318 321 323 324 323 322 318 313 305 296 288 281 276 271 269 267 266 262 258 255 255 254 252 251 251 252 255 255 254 252 251 251 249 248 250 250 249 248 248 247 246 246 247 248 247 246 248 249
318 316 312 310 311 315 318 318 318 320 321 322 321 320 318 315 314 314 313 313 312 309 306 304 305 309 311 310 309 308 307 307 307 306 305 308 312 313 315 319 321 321 321 321 319 317 311 300 289 280 273 268 266 265 264 260 255 254 254 252 250 250 251 252 253 252 250 250 249 248 248 249 250 248 247 248 247 244 243 244 245 245 245 247 248
314 312 309 308 311 315 317 318 319 321 322 321 318 317 314 311 311 313 314 315 315 311 306 304 303 305 307 307 306 305 305 305 305 305 305 307 308 309 311 314 316 317 319 320 320 320 317 310 297 284 274 268 265 265 265 263 258 255 253 251 250 250 250 249 250 251 249 248 248 247 246 247 249 248 246 246 246 244 241 242 243 243 244 246 248
311 309 307 307 311 315 316 318 321 323 322 319 316 314 312 310 309 310 311 314 316 314 310 306 304 303 304 304 303 302 302 303 304 304 304 304 304 306 307 309 311 314 316 319 320 320 319 313 300 287 276 268 263 261 262 262 260 255 252 249 248 249 248 247 247 249 247 246 247 248 246 246 247 248 245 244 245 244 241 240 241 241 242 243 245
310 308 306 307 312 314 316 319 323 324 323 320 317 314 312 311 309 308 308 310 313 314 312 308 304 302 302 302 300 299 299 301 303 303 303 303 303 304 305 306 308 311 314 317 319 321 320 313 300 289 279 269 262 258 258 258 257 254 251 249 247 246 246 244 244 246 247 246 245 246 246 245 245 246 246 244 244 243 239 238 239 240 240 241 243
311 308 306 308 311 313 317 322 325 326 323 321 319 316 314 314 311 308 307 307 308 311 311 306 300 298 299 299 298 296 297 300 302 302 304 304 304 305 305 306 307 310 314 318 322 323 320 313 303 293 284 274 264 258 257 255 254 252 249 248 248 246 245 243 242 244 245 245 244 243 243 244 244 244 245 244 242 240 239 238 238 239 239 239 239
314 311 307 308 311 314 319 324 326 326 325 323 320 317 316 316 313 310 308 306 306 308 308 303 298 296 296 296 295 294 295 299 301 301 303 304 305 306 307 309 309 311 316 321 326 327 321 315 319 310 291 278 268 260 258 256 253 252 250 248 248 247 245 244 242 241 243 244 243 241 241 242 242 242 242 242 241 239 239 238 237 236 238 238 237
318 314 309 308 311 316 321 325 326 327 327 325 320 317 317 316 314 312 309 306 305 307 308 305 300 297 296 295 295 295 296 299 300 301 303 305 305 306 308 310 310 312 318 325 330 331 323 314 332 337 307 278 268 260 255 253 250 250 251 251 248 246 244 243 241 241 242 242 239 239 239 239 239 240 241 241 239 237 237 238 237 236 237 239 239
320 314 308 309 313 318 322 325 327 329 330 326 319 317 317 316 314 313 311 309 310 311 310 307 302 298 297 296 296 298 299 300 301 302 304 305 304 306 308 310 312 313 321 329 331 335 332 315 321 345 335 285 264 260 254 249 246 246 248 249 247 246 245 243 241 240 241 238 236 237 239 238 238 239 240 238 236 236 237 239 238 236 235 238 238
317 312 310 312 317 320 323 326 328 330 331 325 319 318 318 316 315 316 316 316 316 314 310 307 304 301 300 299 300 302 303 302 302 304 307 306 305 308 310 311 313 315 324 333 333 337 344 332 315 331 345 322 274 262 258 253 249 247 248 247 244 240 240 241 241 240 239 236 234 235 237 238 238 238 238 236 235 236 238 238 237 235 235 237 237
314 314 315 318 320 322 324 326 328 330 330 324 319 319 319 319 319 321 323 322 319 314 309 307 305 303 301 301 302 304 304 303 303 307 310 308 307 310 311 311 313 315 324 334 336 341 350 347 329 313 328 338 323 284 263 257 253 250 249 248 244 239 235 236 238 238 238 236 234 234 235 236 237 237 237 236 235 236 237 236 236 235 236 236 237
312 315 318 319 320 322 324 325 326 329 328 324 320 319 320 321 321 323 325 323 318 313 309 307 306 304 303 304 305 307 307 306 309 313 314 312 311 311 311 310 312 315 323 333 339 345 352 353 345 324 313 326 332 319 282 261 255 251 248 246 244 241 238 236 236 236 236 235 234 233 232 233 237 238 237 237 235 235 235 235 235 236 237 238 237
310 314 317 318 319 321 323 323 324 326 327 324 320 319 319 321 321 323 324 321 316 311 308 308 309 307 306 307 309 312 313 314 317 320 319 317 315 313 311 310 311 314 319 328 341 350 352 353 354 344 322 314 318 321 314 282 262 256 252 247 244 242 240 240 239 239 239 238 236 234 231 231 235 236 235 236 236 234 234 234 235 236 237 237 236
306 309 313 315 316 318 320 321 321 323 325 324 321 318 318 319 319 321 322 319 314 309 309 312 312 310 309 310 313 317 318 319 322 323 321 319 318 315 311 308 308 310 314 323 340 352 351 350 355 355 348 333 319 315 320 316 292 270 259 252 248 244 242 242 242 242 241 240 238 236 234 233 234 234 232 234 236 235 232 231 233 237 237 235 234
300 303 308 312 313 315 316 317 318 320 322 323 319 316 315 315 316 318 319 318 313 310 314 317 315 313 312 313 315 317 319 323 325 325 323 320 319 317 313 310 308 309 310 317 333 349 352 348 349 354 359 355 335 318 316 318 312 296 273 257 250 246 243 243 244 243 241 239 237 236 235 234 235 234 231 231 234 235 233 231 232 237 239 236 234
295 298 303 307 311 312 312 314 317 317 319 319 317 314 312 312 313 315 317 316 312 312 317 320 318 316 316 317 317 318 321 325 327 326 323 321 320 318 316 314 312 311 311 313 323 338 347 348 345 348 354 357 352 337 320 312 312 314 298 267 253 248 243 240 241 241 240 238 235 233 232 232 233 234 233 231 231 233 233 232 232 235 238 239 237
291 293 298 304 308 310 310 312 315 315 314 315 314 312 310 309 310 314 316 315 312 313 317 319 318 317 320 322 322 323 325 326 327 325 323 321 322 321 320 319 318 318 318 318 320 326 336 343 344 344 347 353 359 0 345 323 317 320 324 309 270 251 244 240 238 238 239 239 236 233 232 232 231 233 234 232 231 231 232 232 232 235 239 240 238
286 289 294 300 305 308 308 310 312 311 310 310 311 311 310 307 307 311 315 314 311 310 310 311 312 314 318 322 324 327 329 327 326 324 322 322 323 324 324 323 323 324 324 325 327 325 327 335 339 338 342 351 357 1 3 353 334 331 339 343 321 265 247 242 239 237 238 239 238 235 234 235 234 235 235 234 232 232 232 232 232 234 236 237 237
280 284 289 295 302 306 306 306 308 308 307 307 308 310 310 306 304 306 310 310 307 306 305 305 306 308 312 316 318 323 327 326 323 322 321 322 323 325 327 327 325 327 328 331 334 332 328 330 330 330 339 350 355 356 0 3 356 346 347 350 347 320 268 247 241 238 237 237 237 235 235 236 236 236 235 234 233 231 231 232 232 232 233 235 237
275 281 286 292 299 303 304 303 304 304 305 305 306 307 307 305 302 303 305 305 303 304 305 304 305 308 310 313 314 316 321 323 322 320 319 320 321 324 327 328 327 328 331 334 338 337 333 331 327 326 334 345 353 355 356 0 5 360 346 345 352 345 297 250 242 239 236 236 236 234 233 234 234 232 231 231 231 229 228 230 231 232 233 235 237
275 280 285 290 296 299 300 299 300 301 302 301 301 303 304 302 300 301 302 300 300 303 306 306 308 310 311 313 312 313 316 320 321 321 317 315 319 323 325 327 329 329 332 336 339 339 338 334 329 329 334 340 348 355 356 358 6 9 356 343 353 354 319 251 243 242 235 234 236 233 231 232 232 231 229 228 229 227 225 227 230 231 232 234 237
276 280 284 288 293 296 295 295 296 298 299 297 298 300 302 300 297 297 299 298 299 302 305 307 311 312 311 310 309 310 314 317 320 321 318 313 314 320 324 327 329 329 331 336 339 340 343 342 336 336 339 339 345 355 357 357 4 13 11 357 354 1 353 254 237 239 231 228 231 232 231 231 231 231 230 228 228 226 224 225 228 230 232 233 235
277 280 283 286 290 292 292 292 294 296 297 297 297 298 298 296 292 292 295 296 298 302 304 306 311 312 311 309 308 309 312 315 318 321 318 313 312 316 323 328 329 329 330 335 341 343 347 350 345 341 343 341 344 352 355 357 4 13 15 12 358 354 5 6 225 231 229 225 223 224 228 230 229 230 230 227 224 222 222 224 226 226 228 231 233
277 279 281 283 287 289 290 292 294 295 297 299 299 297 294 291 288 287 290 292 297 301 302 304 308 310 310 308 307 308 310 313 317 318 316 313 312 314 321 326 328 329 330 334 341 345 349 354 351 347 347 345 344 347 350 356 6 11 14 17 14 0 4 24 39 215 223 237 231 215 216 224 226 224 225 223 220 219 220 220 221 223 225 228 230
277 278 279 282 284 286 288 291 293 294 295 298 299 296 292 287 284 284 286 289 294 298 299 301 304 307 307 307 305 306 308 312 315 315 313 312 312 313 317 319 322 327 329 334 341 344 348 355 354 352 353 350 344 343 345 353 4 9 12 18 20 17 16 22 29 47 173 235 272 216 208 217 223 221 221 219 215 215 217 216 217 220 224 228 230
276 277 278 280 283 284 285 288 289 291 293 295 294 294 291 284 281 283 286 286 290 295 296 298 301 303 303 304 304 305 308 311 314 313 310 311 311 312 313 312 315 321 326 333 341 344 348 354 353 352 355 352 344 341 343 350 360 7 15 19 18 20 28 33 28 35 67 116 50 105 187 208 219 220 219 217 213 211 213 213 214 218 224 228 231
275 276 277 280 282 282 283 285 285 287 292 293 291 290 289 282 279 283 286 286 287 292 294 295 298 299 300 302 303 306 307 309 310 309 308 310 312 314 313 309 309 314 321 331 341 345 349 353 351 349 352 354 350 344 344 352 360 5 13 19 18 19 25 31 31 32 40 61 69 73 98 136 173 193 201 207 212 212 212 212 214 218 223 228 230
275 276 277 279 280 281 283 285 283 285 289 290 288 289 288 282 281 283 285 284 284 287 289 290 292 294 297 299 302 305 307 306 305 305 305 308 313 316 315 311 307 308 315 326 336 343 348 350 348 348 351 356 358 352 348 355 4 6 9 17 23 23 20 20 24 27 30 37 48 57 75 99 106 112 147 181 196 202 207 211 213 215 219 225 228
273 275 277 278 279 280 282 282 282 285 287 286 286 289 289 284 281 282 283 283 283 284 284 285 287 289 292 296 300 304 306 306 306 305 305 308 311 314 316 314 312 309 311 317 325 332 340 345 345 347 350 353 356 357 356 357 3 7 10 14 20 25 22 18 17 20 25 33 42 45 56 115 128 100 92 117 154 178 193 204 210 214 217 222 228
273 275 277 279 280 281 280 279 280 284 286 285 285 287 287 283 279 280 282 283 281 279 279 280 283 285 288 292 299 303 305 307 308 309 310 311 312 315 317 318 318 314 311 313 317 323 332 338 341 343 346 348 350 353 356 360 1 3 7 10 12 17 20 18 15 13 19 31 42 45 44 51 88 111 101 92 95 116 149 175 191 202 208 213 219
275 277 278 279 280 280 280 280 280 283 285 284 284 285 286 285 281 280 282 282 276 273 275 277 279 281 283 289 297 302 305 307 310 311 311 312 315 318 320 321 322 321 317 314 314 318 323 327 332 336 338 341 346 348 349 355 1 2 4 7 8 11 15 16 12 8 10 20 33 40 40 40 45 58 81 91 81 81 95 118 143 161 174 184 191
275 276 277 278 279 279 279 280 281 282 283 284 284 285 284 283 280 279 280 279 273 271 274 275 275 276 280 288 297 302 304 307 308 307 307 312 318 321 321 322 323 322 321 317 314 316 319 318 320 326 328 330 337 343 344 347 353 359 3 8 11 13 15 15 9 5 5 9 20 28 32 34 39 44 52 65 75 82 87 94 109 127 141 150 157
275 275 276 275 276 278 279 280 281 282 283 284 285 283 280 278 276 274 273 273 271 271 271 271 271 274 280 289 298 302 304 304 302 297 300 309 317 319 319 320 320 319 319 318 316 316 317 316 313 315 319 322 325 331 337 341 346 351 356 5 13 18 19 17 12 7 6 9 15 19 20 23 29 33 41 52 57 57 73 90 97 123 145 156 158
276 276 275 275 276 277 278 280 281 283 284 286 286 283 279 275 274 274 274 275 274 272 270 272 275 278 284 291 297 300 301 299 295 291 295 304 311 314 313 313 314 314 314 314 313 310 310 312 312 309 310 313 315 319 324 328 335 341 345 350 0 11 17 17 15 14 13 14 16 15 14 18 23 23 27 41 48 47 52 63 65 76 149 191 197
276 276 276 276 277 277 278 280 282 283 285 287 288 284 278 274 275 278 278 276 273 269 268 272 277 282 287 293 296 296 295 294 292 292 295 300 304 306 307 307 309 310 310 310 309 307 304 304 306 306 304 303 303 305 309 312 317 324 330 334 342 352 1 6 10 15 19 20 20 17 16 19 19 13 12 22 33 37 44 54 57 57 56 51 32
277 276 276 276 277 278 279 280 281 281 283 287 288 283 278 277 280 278 272 267 265 263 263 267 275 282 288 292 293 293 293 293 293 294 296 298 299 299 302 305 306 307 307 306 305 305 303 299 298 298 298 298 296 293 294 297 301 306 310 315 320 326 334 344 353 3 12 16 15 15 14 11 8 8 9 10 12 16 30 51 58 57 59 59 53
277 276 276 276 277 278 279 277 276 277 280 282 282 280 279 278 271 262 257 258 262 264 265 270 277 284 288 290 290 292 292 292 293 294 295 296 298 298 301 304 304 302 301 300 299 299 298 297 295 293 291 290 290 289 287 287 290 292 295 298 302 304 306 314 324 334 348 358 359 358 360 359 1 7 12 9 3 2 10 28 37 36 46 63 64
276 276 276 277 277 277 275 273 272 274 276 276 275 273 271 265 257 254 255 261 270 275 276 278 281 284 287 288 288 290 291 291 292 293 294 294 296 297 299 300 299 297 295 293 292 291 290 290 290 291 289 287 285 284 284 284 284 285 285 285 287 290 292 295 297 301 310 320 324 325 328 332 338 348 358 3 5 4 359 353 353 3 21 48 60
275 276 277 277 276 273 269 268 269 271 270 268 265 261 257 255 257 261 266 273 278 280 281 281 282 283 285 286 287 289 291 292 292 292 292 292 293 294 295 294 293 292 292 290 288 286 284 283 283 284 285 285 283 282 282 282 281 279 280 280 280 280 281 284 285 284 285 289 293 295 295 296 299 303 310 320 333 351 351 323 318 332 343 346 358
275 276 276 275 271 267 265 264 266 265 262 259 257 255 256 259 267 277 282 282 282 283 283 282 283 283 284 286 288 289 290 291 291 289 289 289 289 290 290 290 290 290 291 289 286 282 279 278 278 278 279 280 281 280 279 279 280 279 278 277 276 275 275 275 276 276 275 274 275 275 275 274 277 281 283 287 291 291 275 260 268 291 308 307 307
276 274 272 268 265 264 264 263 262 260 259 261 260 257 256 259 268 281 287 287 286 286 287 286 285 286 286 287 288 288 287 288 289 288 287 287 288 287 286 287 288 289 287 284 280 277 275 273 272 271 272 274 276 277 276 275 276 278 279 278 276 274 272 271 271 270 269 268 266 265 264 264 266 268 269 271 274 276 275 271 267 265 267 269 269
272 267 265 265 264 265 267 268 266 264 263 264 265 262 261 264 272 281 286 286 284 286 289 289 288 289 290 289 289 288 287 287 288 288 289 290 290 289 289 289 288 286 283 279 275 274 274 273 271 269 267 268 271 274 276 275 274 274 276 277 277 275 273 272 269 266 265 264 262 259 258 259 262 263 263 263 264 266 269 271 269 266 263 261 260
265 266 269 273 274 273 274 274 272 267 265 266 269 270 270 272 276 278 280 282 286 289 291 291 292 293 293 292 291 289 289 289 290 290 292 294 295 295 295 293 290 287 285 283 281 278 277 276 273 269 267 266 267 270 273 275 276 276 275 274 275 276 276 275 271 267 265 264 262 261 260 262 264 265 264 263 263 262 263 262 261 262 264 264 260
267 270 272 274 273 271 270 269 268 267 268 271 274 275 273 273 275 276 279 284 289 291 292 293 295 295 294 293 291 290 291 292 293 293 294 296 298 299 298 295 295 296 295 294 294 295 295 293 290 280 275 274 272 269 268 271 274 277 278 277 275 275 276 275 272 268 265 263 262 261 262 265 267 267 268 269 270 269 269 266 262 259 259 259 258
270 270 269 267 266 265 267 270 273 274 276 276 276 275 276 277 279 282 285 288 290 292 293 295 296 296 294 292 292 293 294 294 294 295 297 299 301 303 305 306 312 321 325 326 329 331 335 340 345 345 337 327 312 294 280 275 275 277 279 281 281 281 281 279 276 271 267 265 263 260 259 262 265 267 268 271 274 276 277 275 271 266 261 258 255
274 275 274 272 271 271 274 277 279 278 278 277 276 276 277 279 282 284 286 288 290 292 294 295 293 291 291 292 294 294 294 293 292 293 296 304 313 318 323 329 336 337 339 342 344 345 347 350 352 353 354 354 351 349 343 329 311 299 292 290 290 291 291 291 288 284 279 275 271 266 264 264 266 268 268 270 273 276 278 278 278 278 275 270 264
277 278 277 276 275 275 275 276 276 276 276 276 276 277 279 281 283 285 286 289 291 292 292 290 286 285 287 288 289 287 286 286 288 291 297 308 321 326 330 333 333 333 333 334 333 334 336 336 337 338 338 337 337 338 339 337 334 330 322 313 309 307 305 304 303 301 296 291 284 278 274 271 270 270 270 271 272 274 276 277 279 281 283 283 278
278 277 277 276 275 274 273 273 273 274 274 274 276 278 280 282 284 285 287 289 289 288 285 282 281 282 282 281 279 280 282 285 290 297 303 307 310 314 318 320 321 324 328 328 328 329 330 330 330 330 329 329 330 328 327 326 325 322 318 314 309 305 303 304 305 306 306 305 301 294 287 282 278 275 274 273 274 274 275 277 278 280 281 283 282
282 281 280 279 278 276 275 274 274 274 275 276 277 279 280 281 282 283 284 284 281 277 275 275 276 275 272 268 267 270 277 283 287 291 295 297 298 301 307 312 316 320 323 325 327 327 327 326 326 326 324 324 325 324 323 323 322 319 318 316 311 306 299 293 290 290 291 294 298 300 299 296 293 289 285 282 279 278 276 276 276 276 277 278 279
Height
3180 3178 3176 3174 3172 3171 3169 3167 3166 3164 3163 3161 3159 3158 3156 3154 3153 3151 3150 3149 3148 3146 3145 3144 3143 3141 3140 3138 3136 3134 3132 3130 3128 3127 3125 3124 3122 3121 3119 3117 3116 3114 3113 3112 3111 3109 3107 3106 3106 3106 3106 3105 3105 3106 3106 3107 3108 3109 3111 3112 3113 3115 3116 3116 3117 3119 3121 3123 3124 3126 3128 3128 3128 3130 3132 3133 3133 3133 3135 3137 3138 3140 3141 3142 3143
3178 3176 3174 3172 3170 3169 3167 3165 3164 3162 3160 3158 3157 3156 3154 3152 3151 3149 3148 3147 3145 3144 3143 3142 3140 3139 3137 3135 3133 3131 3130 3128 3127 3125 3123 3122 3120 3119 3117 3115 3113 3111 3110 3108 3107 3105 3103 3101 3100 3101 3100 3099 3099 3099 3100 3102 3102 3102 3104 3106 3106 3108 3109 3110 3113 3114 3115 3117 3119 3120 3122 3123 3123 3125 3127 3128 3129 3129 3130 3132 3134 3135 3137 3138 3139
3175 3174 3172 3170 3168 3167 3165 3163 3161 3160 3158 3156 3155 3153 3152 3150 3149 3147 3146 3145 3143 3142 3140 3139 3138 3136 3134 3133 3131 3129 3127 3126 3125 3123 3121 3120 3118 3116 3114 3112 3111 3109 3107 3105 3104 3101 3099 3097 3095 3095 3094 3093 3093 3093 3093 3095 3096 3096 3097 3099 3100 3102 3104 3105 3107 3109 3110 3112 3113 3115 3117 3118 3118 3120 3121 3122 3124 3125 3125 3127 3129 3131 3132 3134 3135
3173 3171 3170 3168 3166 3164 3163 3161 3160 3158 3156 3154 3153 3151 3149 3148 3146 3145 3144 3143 3141 3139 3138 3137 3135 3133 3132 3130 3128 3127 3125 3123 3122 3120 3119 3117 3116 3114 3112 3110 3108 3106 3104 3102 3100 3097 3095 3092 3090 3089 3088 3087 3087 3087 3087 3087 3089 3089 3090 3092 3093 3095 3098 3100 3102 3103 3104 3106 3108 3110 3111 3113 3114 3115 3116 3117 3119 3120 3121 3122 3124 3126 3128 3130 3132
3171 3169 3167 3166 3164 3162 3160 3159 3157 3156 3154 3152 3150 3149 3147 3145 3144 3143 3141 3140 3139 3137 3135 3134 3132 3131 3129 3128 3126 3124 3122 3121 3119 3118 3116 3115 3113 3111 3110 3108 3106 3103 3101 3099 3096 3093 3090 3087 3084 3082 3081 3080 3080 3081 3081 3081 3082 3082 3084 3086 3088 3089 3091 3094 3096 3098 3099 3100 3102 3104 3106 3107 3109 3110 3111 3112 3114 3115 3116 3117 3119 3122 3124 3126 3128
3169 3167 3165 3163 3161 3160 3158 3157 3155 3153 3152 3150 3148 3146 3145 3143 3141 3140 3139 3138 3136 3135 3133 3132 3130 3129 3127 3125 3123 3122 3120 3118 3117 3115 3114 3112 3110 3109 3107 3105 3103 3100 3098 3096 3092 3089 3086 3082 3078 3076 3074 3073 3074 3075 3075 3075 3075 3076 3077 3080 3082 3083 3084 3087 3089 3091 3093 3095 3097 3098 3100 3102 3104 3104 3106 3108 3109 3110 3112 3113 3115 3117 3119 3121 3123
3166 3164 3162 3160 3159 3157 3156 3154 3153 3151 3149 3147 3145 3143 3142 3140 3139 3138 3136 3135 3134 3132 3131 3129 3128 3126 3125 3123 3121 3119 3118 3116 3114 3112 3111 3109 3108 3106 3104 3102 3100 3098 3095 3092 3089 3085 3081 3076 3072 3070 3068 3067 3067 3068 3068 3068 3069 3070 3071 3073 3076 3077 3079 3080 3082 3084 3087 3089 3092 3093 3095 3097 3099 3100 3102 3103 3104 3105 3107 3108 3110 3113 3114 3116 3119
3163 3161 3159 3158 3156 3155 3154 3152 3150 3148 3146 3144 3142 3141 3139 3138 3137 3135 3134 3132 3131 3130 3129 3127 3125 3124 3122 3121 3119 3117 3115 3113 3112 3110 3108 3107 3105 3103 3101 3099 3097 3094 3092 3089 3085 3081 3076 3071 3067 3064 3062 3061 3061 3062 3063 3063 3063 3064 3066 3067 3069 3071 3073 3074 3077 3079 3080 3083 3086 3088 3089 3091 3094 3095 3097 3097 3098 3100 3103 3105 3106 3108 3110 3111 3113
3160 3158 3157 3155 3154 3153 3151 3150 3148 3146 3144 3142 3140 3138 3137 3135 3134 3133 3131 3130 3128 3127 3126 3124 3123 3121 3120 3118 3116 3114 3113 3111 3109 3107 3106 3104 3102 3100 3099 3096 3093 3091 3088 3085 3082 3077 3072 3067 3063 3060 3057 3056 3056 3057 3058 3058 3058 3059 3060 3062 3063 3064 3066 3068 3070 3072 3074 3076 3080 3082 3084 3086 3088 3090 3091 3092 3094 3097 3100 3100 3101 3103 3105 3106 3108
3157 3156 3154 3153 3152 3150 3149 3147 3146 3144 3141 3139 3138 3136 3135 3133 3132 3130 3129 3127 3126 3124 3123 3121 3120 3119 3117 3115 3113 3112 3110 3109 3107 3105 3103 3101 3099 3097 3095 3093 3090 3088 3085 3082 3078 3073 3068 3063 3059 3056 3053 3052 3051 3052 3052 3052 3053 3053 3054 3056 3057 3058 3059 3062 3064 3066 3068 3071 3074 3077 3078 3080 3083 3085 3086 3088 3091 3093 3094 3094 3096 3099 3101 3101 3103
3155 3154 3152 3151 3150 3148 3147 3145 3143 3141 3139 3137 3136 3134 3132 3131 3129 3128 3126 3125 3123 3121 3120 3118 3117 3116 3115 3113 3111 3109 3108 3106 3104 3102 3100 3098 3096 3094 3092 3090 3088 3085 3082 3079 3074 3070 3065 3060 3056 3052 3049 3049 3048 3047 3047 3047 3047 3048 3048 3050 3051 3052 3054 3056 3059 3061 3062 3065 3068 3071 3073 3075 3078 3080 3082 3084 3087 3088 3089 3090 3092 3095 3097 3097 3099
3153 3152 3150 3149 3147 3146 3144 3143 3141 3139 3137 3135 3134 3132 3130 3128 3127 3126 3124 3122 3121 3119 3117 3116 3115 3114 3112 3111 3109 3107 3106 3103 3101 3099 3097 3095 3093 3091 3089 3087 3085 3082 3080 3076 3072 3067 3062 3057 3053 3049 3046 3045 3044 3043 3044 3044 3043 3043 3044 3044 3045 3047 3049 3051 3053 3055 3057 3060 3063 3065 3067 3070 3073 3075 3077 3079 3082 3083 3085 3087 3088 3091 3092 3093 3097
3151 3149 3148 3146 3145 3144 3142 3140 3138 3137 3135 3133 3132 3130 3128 3126 3124 3123 3122 3120 3118 3117 3115 3114 3113 3111 3110 3108 3107 3105 3103 3101 3098 3097 3095 3092 3090 3088 3086 3084 3082 3080 3077 3074 3069 3065 3060 3055 3051 3047 3044 3042 3040 3039 3039 3039 3039 3039 3039 3040 3041 3042 3044 3046 3049 3051 3052 3055 3057 3059 3062 3065 3067 3069 3072 3075 3077 3078 3080 3082 3084 3086 3087 3090 3094
3148 3147 3145 3144 3143 3141 3140 3138 3136 3134 3133 3131 3129 3127 3126 3124 3122 3121 3119 3118 3116 3115 3114 3112 3110 3109 3107 3106 3104 3102 3101 3098 3096 3094 3092 3090 3087 3086 3084 3082 3080 3077 3074 3071 3067 3063 3059 3053 3048 3045 3042 3040 3038 3036 3036 3035 3034 3034 3034 3035 3036 3038 3040 3042 3044 3046 3047 3049 3051 3054 3057 3060 3062 3065 3068 3070 3072 3072 3075 3078 3080 3082 3084 3087 3090
3146 3144 3143 3142 3140 3139 3137 3136 3134 3132 3131 3129 3127 3125 3123 3122 3121 3119 3117 3116 3114 3113 3111 3110 3108 3106 3105 3103 3102 3100 3098 3096 3094 3092 3090 3088 3085 3083 3081 3080 3078 3075 3072 3070 3066 3061 3058 3053 3048 3043 3040 3038 3036 3034 3032 3031 3030 3029 3029 3030 3031 3033 3035 3037 3039 3041 3043 3044 3046 3049 3052 3054 3057 3060 3063 3064 3065 3067 3070 3074 3076 3077 3080 3082 3083
3143 3142 3141 3139 3138 3136 3135 3133 3132 3130 3128 3127 3125 3123 3122 3120 3119 3117 3116 3114 3112 3111 3109 3108 3106 3104 3103 3101 3100 3098 3096 3094 3092 3090 3088 3085 3083 3081 3079 3077 3075 3073 3071 3068 3065 3060 3056 3053 3048 3044 3039 3036 3034 3032 3030 3028 3026 3025 3025 3025 3026 3027 3029 3031 3033 3035 3037 3039 3041 3044 3047 3049 3052 3054 3057 3058 3060 3063 3066 3069 3071 3072 3074 3075 3076
3141 3139 3138 3137 3136 3134 3133 3131 3129 3127 3126 3124 3123 3121 3119 3118 3117 3115 3114 3112 3110 3109 3107 3106 3104 3102 3101 3099 3098 3096 3094 3092 3090 3088 3085 3083 3081 3079 3077 3074 3073 3071 3069 3066 3063 3059 3056 3052 3048 3044 3040 3035 3032 3030 3027 3025 3024 3022 3021 3020 3020 3021 3023 3026 3027 3029 3031 3033 3036 3038 3041 3044 3046 3048 3051 3053 3055 3058 3060 3063 3066 3068 3068 3069 3071
3138 3137 3136 3135 3133 3132 3130 3128 3127 3125 3123 3122 3120 3119 3117 3116 3114 3113 3111 3110 3108 3107 3105 3104 3102 3100 3099 3098 3096 3094 3092 3090 3087 3085 3083 3081 3079 3077 3075 3072 3070 3068 3066 3064 3061 3058 3055 3052 3048 3043 3039 3035 3031 3027 3025 3023 3021 3019 3017 3015 3015 3015 3017 3019 3020 3022 3025 3027 3029 3032 3034 3037 3040 3042 3044 3048 3050 3052 3055 3058 3062 3063 3063 3065 3068
3135 3134 3133 3132 3131 3129 3127 3125 3124 3122 3121 3119 3118 3116 3115 3114 3112 3111 3109 3107 3106 3105 3103 3102 3100 3099 3097 3096 3094 3092 3090 3087 3085 3083 3081 3079 3077 3075 3073 3070 3068 3066 3064 3062 3060 3057 3054 3051 3048 3044 3039 3034 3030 3026 3023 3021 3019 3017 3014 3011 3010 3010 3010 3012 3013 3016 3019 3021 3023 3025 3027 3030 3033 3035 3037 3041 3044 3047 3051 3054 3057 3058 3059 3062 3065
3132 3130 3130 3129 3129 3127 3124 3123 3121 3119 3118 3117 3115 3114 3113 3111 3110 3108 3107 3105 3104 3102 3101 3100 3098 3097 3095 3094 3092 3090 3088 3086 3083 3081 3079 3077 3075 3073 3070 3068 3066 3064 3061 3059 3057 3055 3053 3050 3047 3043 3039 3034 3030 3026 3022 3019 3017 3015 3012 3009 3006 3005 3004 3005 3008 3011 3013 3015 3017 3020 3022 3024 3027 3029 3031 3034 3038 3042 3046 3049 3051 3053 3056 3058 3060
3128 3127 3127 3127 3126 3124 3122 3120 3118 3117 3116 3114 3113 3111 3110 3109 3107 3106 3105 3103 3102 3100 3099 3098 3096 3094 3093 3091 3090 3088 3086 3084 3082 3079 3077 3075 3073 3071 3068 3066 3064 3062 3059 3057 3055 3053 3051 3048 3046 3043 3038 3034 3030 3026 3022 3018 3015 3013 3010 3007 3005 3002 3000 3000 3003 3005 3007 3009 3011 3014 3016 3017 3020 3023 3025 3028 3032 3036 3040 3043 3046 3048 3051 3053 3055
3125 3124 3124 3124 3123 3121 3119 3117 3115 3114 3113 3111 3110 3109 3107 3106 3105 3103 3102 3101 3099 3098 3097 3095 3094 3092 3090 3089 3087 3085 3084 3082 3080 3077 3075 3073 3071 3069 3067 3065 3062 3060 3058 3055 3053 3051 3048 3046 3044 3041 3038 3034 3030 3026 3022 3018 3014 3011 3009 3006 3003 3001 2998 2997 2998 3000 3002 3003 3005 3007 3010 3011 3014 3017 3019 3023 3027 3031 3034 3037 3040 3043 3046 3049 3052
3121 3121 3120 3120 3119 3118 3116 3114 3112 3111 3110 3109 3107 3106 3105 3103 3102 3100 3099 3098 3097 3095 3094 3093 3091 3090 3088 3087 3085 3083 3081 3079 3078 3076 3073 3071 3069 3067 3065 3063 3061 3058 3056 3054 3051 3049 3047 3045 3042 3040 3037 3034 3030 3026 3022 3019 3014 3010 3007 3005 3003 2999 2996 2994 2995 2996 2998 2999 3001 3003 3005 3007 3009 3012 3015 3018 3022 3025 3029 3032 3035 3039 3042 3045 3048
3118 3117 3117 3117 3116 3115 3113 3111 3109 3108 3107 3106 3104 3103 3102 3100 3099 3097 3096 3095 3094 3093 3092 3090 3089 3088 3086 3084 3082 3080 3078 3077 3075 3073 3071 3069 3067 3065 3063 3061 3059 3057 3055 3052 3050 3048 3046 3043 3041 3039 3036 3034 3030 3026 3023 3019 3015 3010 3006 3004 3002 2999 2994 2992 2992 2993 2995 2996 2998 2999 3001 3003 3005 3007 3011 3014 3018 3021 3024 3028 3031 3035 3038 3041 3044
3114 3114 3114 3113 3112 3111 3109 3107 3106 3104 3104 3103 3101 3100 3099 3097 3096 3094 3093 3092 3091 3090 3089 3088 3087 3085 3084 3082 3080 3078 3076 3074 3073 3071 3069 3067 3066 3064 3062 3059 3057 3055 3053 3051 3049 3047 3044 3042 3040 3037 3035 3033 3030 3026 3023 3020 3015 3011 3007 3004 3001 2998 2994 2990 2990 2991 2992 2993 2994 2995 2997 2999 3001 3004 3007 3010 3013 3016 3019 3023 3026 3030 3034 3037 3039
3111 3111 3110 3109 3108 3107 3106 3104 3102 3101 3100 3099 3098 3097 3096 3094 3093 3091 3090 3089 3089 3088 3086 3085 3084 3083 3081 3080 3078 3076 3074 3072 3070 3069 3068 3066 3064 3062 3060 3058 3056 3054 3052 3050 3048 3046 3043 3041 3039 3036 3034 3032 3030 3027 3023 3020 3016 3013 3009 3004 3000 2998 2994 2991 2989 2989 2990 2990 2990 2992 2994 2996 2997 3000 3002 3005 3008 3011 3015 3019 3023 3026 3030 3032 3034
3107 3107 3106 3105 3104 3103 3102 3101 3099 3097 3096 3095 3094 3093 3092 3091 3090 3088 3088 3087 3086 3085 3084 3083 3082 3080 3079 3077 3076 3074 3072 3070 3069 3067 3066 3064 3062 3060 3059 3057 3055 3053 3051 3049 3047 3045 3043 3040 3038 3036 3033 3031 3029 3027 3024 3021 3018 3014 3010 3006 3001 2998 2995 2993 2990 2989 2989 2989 2989 2989 2991 2994 2995 2997 2999 3001 3004 3008 3012 3015 3019 3023 3026 3029 3031
3104 3103 3102 3101 3100 3099 3098 3097 3095 3093 3091 3091 3090 3089 3088 3088 3086 3085 3085 3084 3083 3082 3081 3080 3079 3078 3077 3075 3074 3072 3070 3068 3067 3065 3064 3062 3061 3059 3057 3055 3053 3051 3049 3048 3046 3044 3042 3040 3038 3036 3033 3031 3029 3027 3025 3022 3019 3015 3012 3008 3004 3001 2997 2995 2993 2990 2988 2989 2988 2986 2988 2991 2993 2994 2996 2999 3001 3005 3009 3012 3016 3020 3023 3025 3027
3100 3099 3098 3097 3096 3094 3094 3093 3091 3089 3088 3086 3085 3085 3085 3084 3083 3082 3082 3081 3080 3079 3078 3077 3076 3075 3074 3073 3071 3070 3068 3067 3065 3063 3062 3060 3059 3057 3055 3053 3051 3049 3048 3046 3045 3043 3041 3039 3038 3036 3033 3031 3029 3027 3025 3022 3019 3016 3013 3010 3007 3004 3000 2997 2995 2992 2990 2989 2989 2986 2986 2987 2989 2989 2992 2996 3000 3003 3007 3010 3013 3017 3020 3022 3025
3095 3094 3093 3092 3091 3090 3090 3089 3086 3085 3085 3083 3080 3080 3082 3081 3079 3079 3079 3077 3077 3076 3075 3074 3073 3072 3071 3070 3069 3067 3066 3064 3063 3061 3060 3058 3057 3055 3053 3052 3050 3048 3046 3044 3043 3042 3040 3039 3038 3036 3033 3031 3029 3027 3025 3023 3020 3018 3015 3012 3009 3006 3003 3000 2998 2995 2993 2991 2990 2989 2987 2987 2987 2987 2987 2991 2996 3001 3005 3008 3011 3014 3017 3020 3022
3091 3090 3088 3087 3087 3086 3086 3085 3082 3081 3082 3080 3076 3075 3077 3077 3076 3075 3075 3074 3073 3073 3072 3071 3070 3069 3068 3067 3066 3064 3063 3061 3060 3059 3057 3056 3055 3053 3051 3050 3048 3046 3045 3043 3042 3041 3039 3038 3037 3035 3033 3031 3029 3027 3025 3023 3021 3019 3016 3014 3012 3009 3007 3004 3002 2999 2997 2995 2993 2991 2990 2989 2990 2989 2988 2988 2991 2996 3000 3004 3008 3011 3014 3017 3019
3086 3086 3084 3083 3082 3082 3082 3081 3079 3078 3078 3076 3073 3071 3072 3073 3072 3072 3071 3070 3070 3069 3068 3068 3067 3066 3065 3064 3063 3062 3060 3058 3057 3056 3055 3054 3052 3051 3049 3048 3046 3045 3043 3042 3040 3039 3038 3036 3035 3034 3032 3031 3029 3027 3025 3023 3021 3020 3017 3016 3014 3012 3010 3008 3006 3003 3001 2999 2997 2995 2994 2992 2992 2992 2992 2992 2992 2993 2995 2999 3003 3006 3009 3012 3015
3082 3081 3080 3079 3078 3078 3077 3076 3075 3074 3073 3072 3070 3067 3067 3068 3068 3067 3067 3066 3066 3065 3064 3064 3064 3063 3062 3061 3060 3059 3057 3056 3054 3053 3052 3051 3050 3049 3048 3046 3045 3043 3042 3040 3038 3037 3036 3035 3034 3033 3032 3030 3028 3027 3025 3023 3021 3020 3018 3017 3015 3013 3012 3010 3009 3007 3005 3003 3001 2999 2998 2997 2996 2996 2996 2996 2996 2996 2996 2997 2999 3002 3004 3007 3009
3077 3076 3076 3075 3074 3073 3073 3072 3071 3070 3068 3067 3066 3064 3062 3062 3062 3062 3062 3062 3061 3061 3060 3060 3060 3060 3059 3058 3057 3056 3055 3053 3052 3051 3050 3049 3048 3047 3046 3045 3043 3042 3041 3039 3037 3036 3034 3033 3032 3031 3030 3029 3028 3026 3025 3023 3022 3020 3019 3017 3016 3015 3013 3012 3011 3010 3008 3006 3004 3003 3001 3000 2999 2999 2999 2999 2998 2998 2999 2999 2999 3000 3002 3005 3006
3072 3071 3071 3070 3070 3069 3068 3067 3066 3065 3064 3062 3061 3059 3058 3056 3056 3057 3057 3057 3057 3057 3057 3056 3056 3056 3056 3055 3054 3053 3052 3051 3050 3049 3048 3047 3046 3045 3044 3043 3042 3040 3039 3038 3036 3034 3033 3032 3031 3030 3029 3028 3027 3026 3024 3023 3022 3020 3019 3018 3017 3016 3015 3014 3013 3011 3010 3008 3007 3005 3004 3002 3001 3000 3000 3001 3001 3000 3001 3001 3002 3002 3003 3004 3006
3067 3066 3066 3066 3066 3065 3064 3063 3062 3061 3059 3058 3056 3054 3053 3051 3051 3051 3051 3052 3052 3052 3052 3052 3052 3052 3052 3051 3051 3050 3049 3048 3048 3047 3046 3045 3044 3043 3042 3041 3040 3038 3037 3036 3035 3033 3032 3031 3030 3029 3028 3027 3026 3025 3024 3023 3022 3021 3020 3019 3018 3017 3016 3015 3014 3013 3011 3010 3009 3008 3006 3005 3003 3002 3002 3003 3003 3003 3003 3003 3003 3004 3005 3006 3007
3063 3062 3061 3061 3061 3060 3060 3059 3058 3056 3055 3054 3051 3050 3049 3048 3048 3048 3048 3048 3048 3049 3049 3049 3049 3048 3048 3048 3048 3047 3047 3046 3045 3045 3044 3043 3042 3041 3040 3039 3038 3036 3035 3034 3033 3032 3030 3029 3028 3027 3026 3026 3025 3024 3023 3022 3021 3020 3019 3019 3018 3017 3017 3016 3015 3014 3013 3011 3011 3010 3009 3007 3006 3006 3005 3005 3005 3006 3006 3005 3005 3005 3006 3007 3008
3059 3058 3058 3057 3057 3056 3055 3054 3054 3053 3052 3050 3049 3047 3047 3046 3046 3046 3046 3045 3045 3046 3046 3046 3046 3045 3045 3045 3045 3044 3044 3043 3042 3042 3041 3040 3039 3038 3037 3036 3035 3034 3033 3032 3031 3030 3028 3027 3026 3025 3025 3024 3023 3023 3022 3021 3020 3020 3019 3018 3018 3017 3017 3016 3016 3015 3014 3013 3012 3011 3010 3010 3009 3008 3008 3008 3008 3008 3008 3008 3008 3009 3009 3010 3010
3054 3054 3054 3053 3053 3052 3051 3051 3050 3049 3049 3047 3046 3045 3045 3044 3044 3044 3043 3043 3043 3043 3043 3043 3043 3043 3042 3042 3042 3041 3041 3040 3040 3039 3038 3037 3036 3035 3034 3033 3032 3031 3031 3030 3029 3027 3026 3025 3024 3023 3022 3022 3021 3021 3020 3020 3019 3018 3018 3017 3016 3016 3016 3016 3015 3015 3014 3014 3013 3012 3012 3011 3011 3010 3010 3011 3010 3010 3010 3011 3011 3012 3013 3013 3013
3050 3050 3049 3049 3049 3048 3047 3047 3047 3046 3045 3045 3044 3043 3043 3042 3041 3041 3041 3041 3041 3040 3040 3041 3041 3040 3040 3040 3039 3038 3038 3037 3037 3036 3035 3034 3033 3032 3031 3030 3029 3028 3027 3027 3026 3025 3024 3023 3022 3021 3020 3020 3019 3019 3018 3018 3017 3017 3016 3016 3015 3015 3015 3014 3014 3014 3014 3014 3013 3013 3013 3012 3012 3012 3012 3012 3012 3012 3012 3012 3013 3014 3014 3014 3015
3046 3046 3045 3045 3045 3044 3044 3044 3044 3043 3042 3042 3042 3041 3040 3040 3039 3039 3039 3039 3039 3039 3039 3039 3038 3038 3038 3037 3036 3036 3035 3034 3033 3033 3032 3030 3029 3028 3027 3027 3026 3025 3024 3024 3023 3023 3022 3021 3020 3019 3018 3017 3017 3017 3016 3016 3015 3015 3014 3014 3014 3014 3013 3013 3013 3013 3013 3012 3012 3012 3012 3012 3012 3012 3012 3013 3013 3013 3013 3013 3014 3014 3014 3015 3015
3043 3042 3042 3042 3041 3041 3040 3040 3040 3040 3040 3039 3039 3039 3038 3038 3037 3037 3037 3037 3037 3037 3037 3037 3036 3036 3035 3035 3034 3033 3032 3031 3030 3030 3028 3027 3026 3025 3024 3024 3023 3022 3021 3021 3020 3020 3019 3019 3018 3017 3016 3015 3014 3014 3014 3013 3013 3013 3012 3012 3012 3011 3011 3011 3011 3011 3011 3011 3011 3011 3011 3011 3012 3012 3012 3012 3013 3013 3014 3014 3014 3014 3014 3015 3015
3040 3039 3039 3039 3038 3038 3038 3037 3037 3037 3037 3037 3037 3037 3037 3036 3036 3036 3035 3035 3035 3035 3034 3034 3034 3033 3032 3032 3031 3030 3029 3028 3027 3026 3025 3024 3023 3022 3022 3021 3020 3019 3019 3018 3018 3017 3017 3016 3015 3015 3014 3013 3012 3012 3011 3011 3011 3010 3010 3010 3009 3009 3009 3009 3009 3009 3009 3009 3009 3009 3010 3010 3010 3010 3011 3011 3012 3012 3012 3013 3013 3013 3014 3014 3014
3037 3037 3036 3036 3035 3036 3036 3035 3035 3035 3035 3035 3035 3035 3035 3035 3034 3033 3033 3033 3033 3032 3032 3031 3030 3030 3029 3028 3027 3026 3026 3025 3024 3022 3021 3021 3020 3020 3019 3018 3018 3017 3016 3016 3015 3014 3014 3013 3013 3013 3012 3011 3010 3009 3009 3008 3008 3008 3007 3007 3007 3007 3007 3007 3007 3007 3007 3007 3007 3007 3008 3008 3008 3008 3009 3009 3010 3010 3010 3011 3011 3012 3012 3013 3013
3035 3035 3034 3034 3034 3034 3034 3033 3033 3033 3033 3033 3033 3033 3033 3032 3032 3031 3031 3031 3030 3030 3029 3028 3027 3026 3026 3025 3024 3023 3022 3021 3020 3019 3019 3018 3017 3017 3016 3016 3015 3014 3014 3013 3013 3012 3012 3011 3011 3010 3010 3009 3008 3008 3007 3006 3006 3005 3005 3005 3005 3004 3004 3004 3004 3005 3005 3005 3005 3005 3005 3006 3006 3006 3006 3007 3007 3008 3008 3009 3009 3010 3010 3011 3011
3033 3033 3033 3033 3033 3032 3032 3031 3031 3031 3031 3030 3030 3030 3030 3029 3029 3029 3029 3028 3028 3027 3026 3025 3024 3023 3022 3021 3020 3019 3019 3018 3018 3017 3016 3015 3015 3015 3014 3013 3013 3012 3012 3011 3011 3010 3010 3009 3009 3008 3008 3007 3007 3006 3005 3004 3004 3003 3003 3003 3002 3002 3002 3002 3002 3002 3002 3002 3003 3003 3003 3004 3004 3004 3004 3004 3005 3005 3006 3006 3007 3007 3008 3008 3009
3032 3031 3031 3031 3031 3030 3030 3029 3029 3028 3028 3028 3027 3027 3027 3027 3027 3026 3026 3025 3025 3024 3023 3022 3021 3020 3019 3018 3017 3017 3016 3016 3015 3015 3014 3014 3013 3013 3012 3011 3011 3011 3010 3010 3009 3008 3008 3007 3007 3006 3006 3006 3005 3005 3004 3004 3003 3002 3001 3001 3000 3000 3000 3000 2999 3000 3000 3000 3000 3000 3001 3001 3001 3002 3002 3002 3002 3003 3003 3003 3004 3004 3005 3005 3006
3030 3030 3029 3029 3028 3028 3028 3027 3027 3026 3026 3025 3025 3024 3024 3024 3024 3023 3023 3022 3021 3020 3020 3019 3018 3018 3017 3016 3015 3015 3015 3014 3014 3013 3013 3012 3012 3011 3011 3010 3010 3009 3009 3008 3008 3007 3007 3006 3006 3005 3005 3004 3004 3003 3003 3003 3002 3002 3001 3000 2999 2999 2998 2998 2997 2997 2997 2997 2997 2998 2998 2998 2998 2999 2999 2999 3000 3000 3000 3000 3000 3001 3001 3002 3002
3028 3027 3027 3026 3026 3025 3025 3024 3024 3024 3023 3023 3022 3021 3021 3021 3020 3020 3019 3019 3018 3017 3017 3016 3016 3015 3015 3014 3014 3014 3013 3013 3012 3012 3011 3011 3011 3010 3010 3009 3009 3008 3008 3007 3007 3006 3006 3005 3004 3004 3003 3003 3003 3002 3002 3001 3001 3001 3000 3000 2999 2998 2997 2996 2996 2996 2995 2995 2995 2995 2995 2995 2995 2996 2996 2996 2996 2997 2997 2997 2997 2997 2998 2998 2999
3025 3025 3024 3023 3022 3022 3022 3021 3021 3020 3020 3019 3019 3018 3018 3017 3017 3016 3016 3015 3015 3014 3014 3014 3014 3013 3013 3013 3012 3012 3012 3011 3011 3011 3010 3010 3009 3009 3008 3008 3007 3007 3007 3006 3006 3005 3004 3004 3003 3002 3002 3001 3001 3000 3000 2999 2999 2999 2999 2998 2998 2998 2997 2996 2995 2995 2994 2994 2994 2993 2993 2993 2993 2993 2993 2993 2993 2993 2994 2994 2994 2994 2994 2995 2995
3022 3021 3020 3019 3019 3018 3018 3017 3017 3017 3016 3016 3015 3015 3014 3014 3013 3013 3013 3012 3012 3012 3012 3012 3012 3012 3011 3011 3011 3010 3010 3010 3009 3009 3009 3009 3008 3008 3007 3007 3006 3005 3005 3005 3004 3004 3003 3002 3002 3001 3000 3000 2999 2998 2998 2997 2997 2997 2996 2996 2996 2996 2996 2995 2995 2994 2994 2993 2992 2992 2991 2991 2991 2991 2991 2991 2991 2991 2991 2991 2991 2991 2991 2992 2992